Flag for Norway Weather past 2 weeks in Drøbak, Norway

Now
54 °F

Light rain. Fog.


Feels Like: 54 °F
Forecast: 57 / 69 °F
Wind: 2 mph from Northwest

Location: Oslo / Fornebu

Current Time: Jul 6, 2015 at 2:04:14 AM

Latest Report: Jul 6, 2015 at 1:20 AM


Visibility: 0 mi

Pressure: 29.83 "Hg

Humidity: 100%

Dew point: 54 °F

Location of DrøbakLocation

Historic Weather in Drøbak — Graph

°F

Drøbak temperature yesterday

Maximum temperature yesterday: 57 °F (at 7:50 AM)
Minimum temperature yesterday: 54 °F (at 12:20 AM)
Average temperature yesterday: 55 °F

Past Weeks' High & Low Weather Summary

 TemperatureHumidityPressure
High59 °F (Jul 2, 4:20 AM)100% (Jun 25, 9:50 AM)30.36 "Hg (Jun 25, 9:50 AM)
Low46 °F (Jun 23, 9:20 AM)63% (Jun 24, 2:50 PM)29.80 "Hg (Jun 22, 3:20 AM)
Average52 °F89%29.99 "Hg
* Reported Jun 21 12:20 AM — Jul 6 12:50 AM, Drøbak, Weather by CustomWeather, © 2015

Note: Actual official high and low records may vary slightly from our data, if they occured in-between our weather recording intervals... More about our weather records

Advertising

Drøbak weather history for previous 24 hours

 ConditionsComfort  
Time TempWeatherWind HumidityBarometerVisibility
12:50 AM
Mon, Jul 6
54 °FLight rain. Fog.2 mph100%29.83 "Hg0 mi
12:20 AM54 °FLight rain. Fog.3 mph100%29.86 "Hg0 mi
11:50 PM
Sun, Jul 5
54 °FFog.No wind100%29.86 "Hg0 mi
11:20 PM54 °FFog.3 mph100%29.86 "Hg1 mi
10:50 PM55 °FFog.3 mph94%29.86 "Hg1 mi
10:20 PM55 °FPartly sunny.No wind94%29.86 "Hg1 mi
9:50 PM55 °FPartly sunny.1 mph94%29.89 "Hg2 mi
9:20 PM54 °FFog.5 mph100%29.89 "Hg1 mi
8:50 PM55 °FPartly sunny.2 mph94%29.89 "HgN/A
8:20 PM54 °FFog.6 mph100%29.89 "Hg1 mi
7:50 PM54 °FFog.9 mph100%29.92 "Hg0 mi
7:20 PM54 °FFog.8 mph100%29.92 "Hg0 mi
6:50 PM54 °FFog.5 mph100%29.92 "Hg0 mi
6:20 PM54 °FFog.6 mph100%29.92 "Hg0 mi
5:50 PM55 °FFog.9 mph94%29.95 "Hg1 mi
5:20 PM54 °FFog.12 mph100%29.95 "Hg0 mi
4:50 PM54 °FFog.14 mph100%29.98 "Hg0 mi
4:20 PM54 °FFog.12 mph100%29.98 "Hg0 mi
3:50 PM55 °FFog.10 mph94%29.98 "Hg0 mi
3:20 PM55 °FFog.12 mph94%29.98 "Hg0 mi
2:50 PM57 °FFog.7 mph94%29.98 "Hg1 mi
2:20 PM55 °FLight rain. Fog.5 mph100%29.98 "Hg1 mi
1:50 PM54 °FFog.6 mph100%29.98 "Hg0 mi
1:20 PM55 °FFog.13 mph94%29.98 "Hg0 mi
12:50 PM55 °FFog.12 mph100%29.98 "Hg2 mi
12:20 PM55 °FFog.12 mph100%29.98 "Hg1 mi
11:50 AM57 °FPartly sunny.12 mph94%29.98 "HgN/A
11:20 AM55 °FBroken clouds.15 mph100%29.98 "Hg4 mi
10:50 AM55 °FMostly cloudy.16 mph94%30.01 "HgN/A
10:20 AM55 °FPartly sunny.14 mph94%29.98 "HgN/A
9:50 AM55 °FPartly sunny.12 mph94%29.98 "HgN/A
9:20 AM55 °FPartly sunny.12 mph94%29.98 "HgN/A
8:50 AM55 °FPartly sunny.8 mph94%29.98 "HgN/A
8:20 AM55 °FPartly sunny.9 mph94%29.98 "HgN/A
7:50 AM57 °FPartly sunny.8 mph88%30.01 "HgN/A
7:20 AM55 °FPartly sunny.9 mph94%30.01 "HgN/A
6:50 AM55 °FPartly sunny.13 mph94%30.01 "HgN/A
6:20 AM55 °FScattered clouds.12 mph94%30.01 "HgN/A
5:50 AM55 °FPartly sunny.12 mph94%30.01 "HgN/A
5:20 AM55 °FPartly sunny.10 mph94%30.01 "HgN/A
4:50 AM54 °FPassing clouds.10 mph100%30.01 "HgN/A
4:20 AM54 °FPassing clouds.8 mph100%30.01 "HgN/A
3:50 AM54 °FPassing clouds.12 mph100%30.01 "HgN/A
3:20 AM54 °FPassing clouds.14 mph100%30.04 "HgN/A
2:50 AM54 °FPassing clouds.18 mph94%30.04 "Hg6 mi
2:20 AM54 °FPassing clouds.23 mph94%30.04 "HgN/A
Weather by CustomWeather, © 2015

See weather overviewHow to use our weather pages